Regional Weather Roundup
Issued by NWS

Home | Current Version | Previous Version | Graphics & Text | Print | Product List | Glossary On
Versions: 1 2 3 4 5 6 7 8 9 10 11 12 13 14 15 16 17 18 19 20 21 22 23 24 25 26 27 28 29 30 31 32 33 34 35 36 37 38 39 40 41 42 43 44 45 46 47 48 49 50
000
ASUS43 KIND 020809
RWRIN

WEATHER ROUNDUP FOR INDIANA
NATIONAL WEATHER SERVICE INDIANAPOLIS IN
400 AM EDT TUE SEP 02 2014

NOTE: "FAIR" INDICATES FEW OR NO CLOUDS BELOW 12,000 FEET WITH NO
SIGNIFICANT WEATHER AND/OR OBSTRUCTIONS TO VISIBILITY.

* - STATION DOES NOT REPORT WEATHER SUCH AS PRECIPITATION OR FOG.

+ - STATION NOT QUALITY CONTROLLED BY THE NATIONAL WEATHER SERVICE.
    USE DATA WITH CAUTION...ESPECIALLY DEWPOINT AND RELATIVE
    HUMIDITY OBSERVATIONS.

INZ001>003-010>013-019-020-020900-
NORTHWEST INDIANA

CITY           SKY/WX    TMP DP  RH WIND       PRES   REMARKS
GARY /AIRPORT/ CLOUDY    72  67  85 CALM      29.84F
KNOX *+        CLOUDY    67  64  90 SW5       29.88R
LA PORTE +     CLOUDY    68  65  91 W3        29.88S
MICHIGAN CITY+ CLOUDY    68  64  88 CALM      29.86F
MONTICELLO +   LGT RAIN  69  67  94 SW14      29.92R
RENSSELAER +   CLOUDY    70  70 100 SW8       29.90S
VALPARAISO     CLOUDY    71  65  81 SW6       29.88S

$$

LMZ046-743>745-020900-
SOUTHERN LAKE MICHIGAN

STATION/POSITION TIME  TEMP WIND        PRES
                       AIR  DIR/SP/G
                 (UTC) (F)  (DEG/KT/KT) (MB)
MICHIGAN CITY    0800   72  230/ 10/ 12   N/A

$$

INZ004-005-014>016-021>024-020900-
NORTH CENTRAL INDIANA

CITY           SKY/WX    TMP DP  RH WIND       PRES   REMARKS
GOSHEN         CLOUDY    70  65  84 SW6       29.87F
LOGANSPORT +   RAIN      68  63  83 SW14G20   29.94R
PERU/GRISSOM   RAIN      69  69 100 SW15      29.93R
ROCHESTER +    LGT RAIN  72  68  88 SW7       29.91R
SOUTH BEND     CLOUDY    69  65  86 W6        29.87F
WARSAW +       CLOUDY    70  64  83 SW5       29.89F

$$

INZ006>009-017-018-025>027-020900-
NORTHEAST INDIANA

CITY           SKY/WX    TMP DP  RH WIND       PRES   REMARKS
ANGOLA *+      CLEAR     70  63  78 SW5       29.88F
AUBURN +       CLOUDY    70  63  78 SW5       29.91F
FORT WAYNE     CLOUDY    69  66  90 S7        29.92S
HUNTINGTON +   LGT RAIN  69  67  92 SW6       29.91S

$$

INZ028-029-035-036-043>045-051>053-020900-
WEST CENTRAL INDIANA

CITY           SKY/WX    TMP DP  RH WIND       PRES   REMARKS
GREENCASTLE +  RAIN      68  66  94 CALM      29.99S
LAFAYETTE      LGT RAIN  67  66  97 NW5       29.92R
TERRE HAUTE    HVY RAIN  67  65  93 SE3       29.96F FOG

$$

INZ030>032-037>040-046>048-054>057-064-065-020900-
CENTRAL INDIANA

CITY           SKY/WX    TMP DP  RH WIND       PRES   REMARKS
CP ATTERBURY + TSTM      70  68  94 W15G38    29.98R VSB 1
FRANKFORT +    TSTM     N/A N/A N/A SW5       29.96S
GREENWOOD *+   CLOUDY    70  68  94 NW7       29.99R
INDIANAPOLIS   TSTM      69  66  90 W12       29.97R
-EAGLE CREEK   TSTM      69  65  86 SW7       29.97S
KOKOMO *+      CLOUDY    70  64  83 SW15      29.94S
MARION +       RAIN      69  66  91 SW8       29.95S
MT COMFORT *+  CLOUDY    70 N/A N/A W12       29.99R
SHELBYVILLE    TSTM      73  68  84 NW20      29.95S
ZIONSVILLE +   TSTM      70  65  84 SW9       29.98R

$$

INZ033-034-041-042-049-050-058-059-020900-
EAST CENTRAL INDIANA

CITY           SKY/WX    TMP DP  RH WIND       PRES   REMARKS
MUNCIE         LGT RAIN  72  68  87 SW7       29.95R

$$

INZ060-061-067>069-081>083-085>088-020900-
SOUTHWEST INDIANA

CITY           SKY/WX    TMP DP  RH WIND       PRES   REMARKS
EVANSVILLE     CLOUDY    78  71  79 SW13      29.94F
WASHINGTON +   TSTM      68  68 100 N7G16     29.94R

$$

INZ062-063-066-070>080-084-089>092-020900-
SOUTH CENTRAL AND SOUTHEAST INDIANA

CITY           SKY/WX    TMP DP  RH WIND       PRES   REMARKS
BLOOMINGTON    RAIN      67  65  93 N12G17    29.97S FOG

$$




USA.gov is the U.S. government's official web portal to all federal, state and local government web resources and services.